« Back
NWS Peachtree City, Ga » Text Product » GA Regional Weather Roundup


Printer-friendly Version
Current Version              Previous Versions:   1  2  3  4  5  6  7  8  9  

Regional Weather Roundup

383
ASUS42 KFFC 240303
RWRGA
WEATHER ROUNDUP FOR GEORGIA
NATIONAL WEATHER SERVICE PEACHTREE CITY GA
1000 PM EST SUN NOV 23 2014

NOTE: "FAIR" INDICATES FEW OR NO CLOUDS BELOW 12,000 FEET WITH NO
SIGNIFICANT WEATHER AND/OR OBSTRUCTIONS TO VISIBILITY.

* = USE WITH CAUTION. THE STATIONS MARKED WITH AN ASTERISK MAY NOT
REPORT WEATHER SUCH AS PRECIPITATION, FOG, OR THUNDER AND ARE NOT
QUALITY CONTROLLED BY NWS.

THE REMARK "TC" DENOTES TEMPERATURE READING IN DEGREES CELSIUS.

GAZ001>058-240400-
NORTH GEORGIA

CITY           SKY/WX    TMP DP  RH WIND       PRES   REMARKS
ATLANTA        MOCLDY    60  56  86 SW9       29.75R
ATHENS         CLOUDY    58  57  97 SW7       29.75R
CHAMBLEE       CLOUDY    59  55  87 SW7       29.74R
PEACHTREE CITY CLOUDY    61  57  87 VRB3      29.76R
ROME           CLOUDY    57  56  96 S3        29.66S
WEST ATLANTA   CLOUDY    61  55  81 S10G17    29.74R
GAINESVILLE    CLOUDY    53  52  96 S8        29.76R
CARTERSVILLE   CLOUDY    60  55  83 S8        29.71R


CITY           SKY/WX    TMP DP  RH WIND       PRES   REMARKS
DALTON*        CLOUDY    59  59 100 S9        29.67S
MARIETTA       MOCLDY    60  57  91 S10       29.73R
$$

GAZ059>098-102>109-240400-
CENTRAL GEORGIA

CITY           SKY/WX    TMP DP  RH WIND       PRES   REMARKS
AUGUSTA-BUSH   CLOUDY    65  62  90 S9        29.79R
AUGUSTA-DANIEL CLOUDY    67  62  84 S12       29.79R
COLUMBUS       CLOUDY    61  59  93 SW7       29.77R
MACON          MOCLDY    64  62  93 SW10      29.78R
ROBINS AFB     CLOUDY    65  62  90 S13       29.78R


CITY           SKY/WX    TMP DP  RH WIND       PRES   REMARKS
LAGRANGE*      CLOUDY    64  61  90 SW8       29.75R
SYLVANIA*      CLOUDY    66  65  97 S8        29.84R
MILLEDGEVILLE* MOCLDY    63  63 100 CALM      29.77R
$$

GAZ099>101-110>166-240400-
SOUTH GEORGIA

CITY           SKY/WX    TMP DP  RH WIND       PRES   REMARKS
SAVANNAH       LGT RAIN  69  64  84 SE7       29.83F
VALDOSTA       MOCLDY    65  63  93 S3        29.87R
ALMA           CLOUDY    66  64  93 S7        29.85S
ST SIMONS      CLOUDY    67  67 100 CALM      29.90F
FT STEWART     CLOUDY    67  65  94 W3        29.85F
ALBANY         CLOUDY    66  64  93 S9        29.84R
HUNTER AFB     LGT RAIN  68  68 100 SE7       29.81F
MOODY AFB      MOCLDY    65  64  95 S5        29.86S
BRUNSWICK      CLOUDY    68  64  88 CALM      29.90S


CITY           SKY/WX    TMP DP  RH WIND       PRES   REMARKS
BAINBRIDGE*    MOCLDY    66  64  94 S5        29.83S
MOULTRIE*      CLOUDY    64  64 100 S5        29.85S
VIDALIA*       TSTM      66  64  94 S7        29.84R
WAYCROSS*      RAIN      69  69  98 W3        29.86F
DOUGLAS*       RAIN      68  64  88 S5        29.87S
$$



USA.gov is the U.S. government's official web portal to all federal, state and local government web resources and services.